Wetbulb
60.57 60.58 60.30 59.64 58.83 58.92 59.41 59.43 59.31 59.00 58.51 58.46 58.05 57.73 57.76 56.90 55.53 56.23 53.27 57.74 58.03 61.74 60.45 57.49 57.44 57.20 56.58 53.50 54.27 51.93 43.28 41.04 43.33 46.68 46.81 51.12 51.40 53.45 53.94 52.04 53.69 55.59 56.55 61.40 64.94
60.60 60.50 60.66 59.96 58.79 58.43 58.46 58.86 58.89 58.98 58.43 58.20 57.43 57.26 57.04 55.83 53.09 53.18 59.47 62.16 62.75 61.96 55.32 53.75 52.86 53.62 51.63 51.56 51.22 47.26 42.57 44.55 48.67 50.40 49.07 51.77 52.51 52.10 51.79 52.92 52.58 53.64 56.79 59.65 60.67
60.47 60.35 60.42 59.95 58.88 58.47 58.32 58.33 58.58 59.06 58.36 57.79 57.05 57.19 56.22 54.38 52.29 55.71 63.16 62.98 62.45 61.51 55.65 53.67 54.12 53.22 50.67 50.96 49.80 48.80 45.71 50.12 51.73 51.10 51.94 50.78 49.80 51.13 49.95 47.28 52.08 50.78 53.14 55.34 55.70
59.97 59.67 59.72 59.72 59.22 58.32 57.98 57.60 58.33 59.01 58.36 57.48 57.07 56.86 55.71 53.02 46.92 55.19 63.54 63.31 63.61 59.23 56.55 53.35 53.34 49.86 47.70 47.07 51.19 46.40 50.86 51.90 51.73 53.27 51.59 49.16 48.87 49.87 47.08 49.74 53.17 54.45 55.61 57.89 58.23
59.06 59.05 59.16 59.43 59.21 58.43 57.57 57.23 57.99 58.62 58.14 56.97 56.73 56.27 52.26 50.52 51.61 59.53 63.73 62.29 58.47 58.50 57.41 54.12 52.10 50.95 47.06 48.19 49.96 49.39 50.48 51.98 53.54 52.56 50.68 52.14 49.50 49.63 49.28 52.49 55.56 56.73 58.25 57.21 57.26
58.49 58.35 58.32 58.55 58.58 58.13 57.57 57.00 57.44 58.02 57.33 56.26 56.54 55.55 50.45 45.45 57.14 59.42 58.57 58.18 57.50 56.85 55.75 55.14 53.88 53.79 50.67 49.52 48.44 51.07 50.66 50.23 50.78 50.19 50.63 50.37 49.36 47.98 51.01 54.16 56.17 56.69 56.67 56.53 57.13
58.36 58.06 57.91 58.06 58.01 57.80 57.52 56.93 57.26 57.07 56.79 56.25 56.12 53.17 49.91 49.17 56.04 57.35 59.04 57.11 57.44 57.18 55.45 56.87 56.16 52.18 51.69 49.60 52.78 51.23 47.03 48.57 49.28 48.47 48.88 49.75 46.56 47.82 51.31 52.62 55.15 55.86 56.17 55.76 56.63
58.18 57.62 57.01 56.98 57.10 56.94 56.84 56.41 57.00 56.89 56.04 55.95 55.68 50.42 46.56 57.29 56.75 55.92 56.21 57.49 58.88 58.79 58.24 58.95 58.53 55.32 51.96 53.07 51.44 47.50 46.71 41.51 48.97 49.94 51.06 48.44 43.41 49.94 51.97 52.00 52.68 54.12 54.99 54.78 55.65
57.28 57.46 56.63 56.21 55.90 55.90 55.94 56.16 56.63 56.38 55.56 54.86 49.79 48.37 46.76 58.03 53.96 55.93 57.85 55.57 58.28 58.30 58.21 60.01 56.88 52.79 52.51 46.12 42.86 43.64 39.81 42.34 46.08 50.76 49.88 47.89 44.48 49.86 52.14 52.93 52.35 53.11 53.57 53.96 54.63
54.53 57.15 56.33 55.74 55.48 54.85 55.16 55.84 55.85 53.24 53.79 55.35 53.31 46.16 51.66 51.00 55.21 56.35 57.32 58.22 56.32 56.22 54.67 53.23 50.91 47.44 46.66 43.62 37.62 39.91 41.67 44.87 44.78 49.07 49.01 46.78 46.15 48.97 50.93 52.13 51.67 51.37 52.39 52.73 53.08
54.25 54.38 56.45 55.58 55.07 54.57 53.90 51.69 48.45 48.06 50.59 45.85 46.72 47.27 49.64 54.63 56.39 56.15 57.70 56.70 55.73 53.05 47.84 50.15 44.15 42.35 45.90 47.06 47.63 47.09 45.39 43.88 47.62 51.62 49.28 45.85 46.25 48.76 50.50 50.73 50.28 49.80 51.86 51.57 51.94
53.83 54.07 55.96 55.40 54.95 54.69 54.54 47.83 47.97 50.35 44.65 49.71 49.61 49.53 51.78 52.73 49.88 55.33 58.51 52.24 51.54 47.16 49.52 46.76 43.35 48.48 49.97 49.62 48.28 46.98 44.92 44.60 48.35 50.70 49.75 47.96 46.41 49.80 51.22 50.15 50.74 51.23 50.97 50.98 51.49
52.81 53.43 54.56 54.81 54.53 54.23 51.91 50.02 54.49 54.65 44.96 47.97 48.91 48.21 49.78 51.64 48.65 52.34 55.33 52.94 49.83 47.19 47.36 44.52 47.53 51.14 49.66 48.13 46.97 46.95 45.61 45.96 45.36 48.21 48.26 44.92 42.75 46.39 50.58 51.51 50.82 52.05 51.67 51.47 50.50
53.20 53.56 53.56 54.16 51.91 53.40 50.33 54.28 54.76 54.58 36.13 41.23 46.30 49.34 50.91 50.27 47.20 55.09 56.32 53.23 49.73 46.96 48.28 46.96 50.74 49.70 48.49 47.08 48.11 43.40 49.59 49.29 47.31 43.44 37.56 45.37 36.62 44.19 47.54 50.05 49.29 49.79 49.87 49.16 49.74
52.47 52.66 53.21 53.90 52.97 50.36 52.30 55.29 54.28 51.86 23.91 42.85 45.61 54.52 52.19 46.23 50.18 51.23 56.75 52.78 47.75 48.05 48.63 46.22 47.99 47.85 46.80 48.00 49.86 46.17 50.29 49.70 48.09 44.50 41.29 42.21 37.52 43.26 45.98 44.04 46.20 47.76 48.34 47.83 47.81
52.58 52.44 53.18 53.41 53.73 53.61 55.02 54.80 52.56 36.59 23.51 41.17 46.01 45.90 46.02 45.97 47.87 51.68 51.67 53.37 53.24 48.86 49.02 47.66 51.36 49.69 49.55 51.62 51.30 51.24 47.90 47.09 45.43 41.69 33.88 41.68 39.92 37.17 42.54 44.38 45.60 47.54 47.67 48.06 47.86
52.35 52.42 52.41 55.40 49.90 55.00 54.70 50.31 35.64 26.92 43.12 41.46 41.83 45.62 45.36 43.52 43.28 46.10 45.93 45.83 44.00 40.77 40.96 45.70 46.92 51.09 51.97 47.39 49.97 48.45 43.62 34.86 32.57 32.47 32.46 43.57 40.19 41.99 44.62 47.74 47.74 47.00 47.01 47.84 48.07
51.64 51.47 52.49 54.48 55.42 55.07 52.00 40.38 27.02 35.42 38.47 47.95 45.96 45.42 42.67 44.57 42.99 43.67 42.75 42.60 47.38 46.08 42.55 39.68 37.58 46.87 50.40 47.59 45.48 44.46 42.54 32.76 28.55 29.88 33.93 43.06 36.32 39.49 46.20 49.26 49.03 48.28 47.57 48.35 47.44
50.84 49.43 48.27 52.88 55.56 54.15 44.53 31.04 31.99 37.25 40.68 42.48 46.22 42.50 41.78 45.26 45.21 42.80 41.25 42.10 46.36 47.12 41.09 40.09 40.13 49.11 50.53 49.26 48.81 43.87 41.75 46.14 39.63 38.89 32.32 37.35 40.62 44.60 46.44 46.47 46.72 46.81 47.44 44.24 42.99
46.43 45.27 46.65 53.80 55.54 50.53 38.26 33.32 36.55 44.48 44.71 43.67 41.84 44.67 40.28 42.70 43.10 43.11 42.45 45.93 45.73 48.93 49.55 45.46 38.88 47.62 49.17 50.27 48.93 46.80 47.83 39.85 39.29 30.15 28.25 36.04 37.03 36.57 41.63 43.31 45.38 45.41 42.81 42.84 42.65
44.72 38.85 45.46 54.90 53.97 44.24 32.20 35.03 39.88 45.50 46.46 42.32 41.07 43.26 44.03 42.81 44.33 42.61 43.25 47.27 48.59 48.01 50.00 47.23 44.10 42.72 48.04 45.64 42.49 43.01 41.20 41.73 41.51 36.89 30.53 29.49 34.66 43.16 43.45 44.26 43.88 42.88 43.05 41.57 39.66
41.95 32.82 49.40 52.72 41.73 39.65 34.52 39.08 44.05 43.44 46.20 44.82 45.60 45.81 45.21 45.84 44.10 43.87 42.74 46.65 50.16 49.49 45.03 48.05 45.23 37.98 43.29 45.99 47.72 46.95 44.07 41.83 30.52 30.23 30.46 29.28 31.81 44.93 44.82 43.29 43.34 43.33 43.38 39.93 39.86
37.43 36.43 47.78 49.47 33.20 32.21 38.20 39.51 43.44 43.09 43.16 43.36 43.36 45.49 47.24 45.06 41.72 45.50 46.25 50.66 46.52 48.45 46.56 47.93 41.39 33.63 37.07 42.94 45.75 42.00 43.42 42.90 39.56 35.46 32.35 31.03 32.15 44.56 44.37 43.82 44.51 41.60 39.85 39.74 39.67
36.41 31.25 35.75 45.22 42.19 36.41 35.82 37.32 37.75 44.22 43.91 45.65 44.40 45.76 44.14 43.36 45.84 43.51 45.13 43.43 45.40 46.27 46.83 49.68 41.80 36.88 32.11 36.62 40.91 37.89 41.92 43.42 41.00 31.79 33.51 34.17 36.29 40.53 41.34 42.24 42.79 38.74 38.26 37.91 38.40
36.08 32.29 37.35 33.74 34.45 37.64 38.16 38.95 37.47 38.20 43.52 45.48 43.25 42.83 42.61 39.12 41.00 41.24 41.51 41.22 43.36 43.70 43.55 43.84 36.30 40.09 41.18 42.64 42.45 41.43 40.06 40.29 38.44 38.14 33.91 38.16 38.77 41.01 42.16 42.70 39.12 38.03 38.03 37.85 37.46
33.20 32.26 37.04 38.02 39.03 37.44 37.63 37.17 37.46 39.82 41.42 41.50 42.04 42.32 43.61 39.26 41.38 38.00 40.30 38.45 38.06 40.68 41.49 42.44 33.24 36.29 34.31 40.97 42.04 39.83 41.62 40.93 40.06 40.15 39.65 41.28 41.16 45.27 45.28 43.70 38.16 38.09 37.48 36.27 36.42
40.10 42.07 40.39 37.10 35.45 35.96 35.88 37.58 37.88 41.25 43.06 44.33 44.02 41.75 40.74 40.15 41.73 43.32 42.84 42.35 41.45 38.66 38.25 37.98 34.69 33.56 32.13 38.69 37.52 32.49 37.39 40.36 40.80 41.23 41.55 37.14 41.19 44.99 42.26 42.49 37.65 35.66 35.69 35.94 36.65
MSLP
1013.79 1014.00 1014.37 1014.52 1014.99 1015.04 1015.13 1015.32 1015.48 1015.43 1015.37 1015.20 1014.94 1014.65 1014.52 1014.12 1013.25 1012.49 1011.66 1010.20 1010.05 1009.93 1010.17 1009.92 1009.89 1009.82 1009.84 1009.91 1009.38 1009.32 1010.12 1009.90 1008.69 1007.46 1006.46 1005.71 1005.58 1005.80 1005.80 1006.15 1006.30 1006.31 1006.99 1007.70 1008.26
1013.25 1013.49 1013.82 1014.13 1014.43 1014.86 1014.85 1014.92 1015.22 1015.29 1015.31 1015.14 1014.95 1014.69 1014.36 1014.16 1013.42 1011.75 1009.48 1009.44 1009.62 1009.92 1010.00 1009.89 1009.78 1009.57 1010.02 1009.71 1009.44 1009.46 1009.69 1008.77 1008.21 1007.32 1006.49 1005.90 1005.79 1005.97 1006.24 1006.42 1006.58 1006.59 1006.65 1007.42 1007.93
1012.60 1013.06 1013.43 1013.66 1013.91 1014.48 1014.70 1014.57 1014.88 1015.06 1015.13 1015.06 1014.88 1014.61 1014.35 1014.22 1013.08 1009.80 1008.85 1009.06 1009.56 1009.82 1009.90 1009.69 1009.64 1009.76 1009.68 1009.40 1009.31 1009.05 1009.08 1008.16 1007.53 1006.94 1006.33 1006.16 1006.15 1006.11 1006.37 1006.79 1006.75 1007.09 1007.46 1007.84 1008.34
1012.04 1012.45 1012.91 1013.14 1013.58 1013.78 1014.51 1014.41 1014.58 1014.74 1014.90 1014.89 1014.76 1014.48 1014.05 1014.03 1012.09 1009.09 1008.98 1009.03 1009.38 1009.67 1009.84 1009.56 1009.58 1009.70 1009.45 1009.54 1008.82 1008.80 1008.22 1007.57 1006.92 1006.45 1006.32 1006.15 1006.08 1006.18 1006.47 1006.81 1006.70 1007.03 1007.59 1008.42 1009.29
1011.59 1011.87 1012.39 1012.69 1013.14 1013.37 1013.86 1014.34 1014.41 1014.60 1014.70 1014.88 1014.76 1014.55 1013.88 1013.28 1010.42 1008.73 1008.97 1009.17 1009.27 1009.36 1009.44 1009.37 1009.34 1009.29 1009.24 1008.93 1008.74 1008.37 1007.98 1007.23 1006.40 1006.28 1006.18 1006.16 1006.16 1006.47 1006.55 1006.69 1007.10 1007.24 1007.83 1008.72 1009.58
1011.00 1011.34 1011.94 1012.26 1012.64 1013.10 1013.50 1013.90 1014.25 1014.53 1014.60 1014.68 1014.69 1014.63 1014.37 1012.38 1008.52 1008.30 1008.54 1008.98 1008.94 1009.02 1008.97 1008.87 1008.67 1008.54 1008.68 1008.62 1008.69 1008.15 1007.72 1007.28 1006.76 1006.31 1006.23 1006.49 1006.44 1006.49 1006.66 1006.54 1007.13 1007.51 1008.36 1009.08 1009.81
1010.03 1010.75 1011.28 1011.91 1012.29 1012.69 1013.34 1013.68 1014.07 1014.30 1014.51 1014.59 1014.56 1014.46 1013.52 1010.16 1008.27 1008.67 1008.22 1008.35 1008.44 1008.51 1008.60 1008.46 1008.21 1008.43 1008.41 1008.58 1008.05 1007.99 1008.08 1007.46 1006.89 1006.57 1006.39 1006.62 1006.71 1006.43 1006.45 1006.68 1007.30 1007.79 1008.57 1009.43 1010.29
1009.36 1009.94 1010.50 1011.29 1012.00 1012.25 1013.06 1013.59 1013.88 1014.22 1014.35 1014.46 1014.48 1014.23 1012.22 1009.06 1008.31 1008.23 1008.27 1008.09 1008.08 1008.21 1008.20 1008.14 1008.22 1008.17 1008.33 1008.67 1008.48 1008.82 1008.45 1008.06 1006.98 1006.71 1006.20 1006.88 1006.52 1006.11 1005.96 1006.40 1007.38 1007.79 1008.67 1009.77 1010.71
1009.51 1009.38 1009.75 1010.35 1011.48 1012.01 1012.88 1013.56 1013.91 1014.19 1014.23 1014.37 1014.39 1013.66 1011.03 1008.12 1007.90 1007.42 1007.28 1007.76 1007.94 1008.15 1008.13 1008.23 1008.59 1008.68 1008.69 1009.29 1009.74 1009.38 1009.14 1008.46 1007.27 1006.33 1006.15 1006.45 1006.39 1005.94 1005.35 1005.13 1006.93 1007.85 1008.77 1009.92 1011.01
1009.74 1009.10 1009.13 1009.75 1010.65 1011.49 1012.97 1013.52 1014.00 1014.30 1014.16 1014.02 1013.59 1013.03 1009.92 1007.64 1006.70 1006.47 1006.63 1007.04 1007.49 1008.13 1008.68 1008.82 1009.32 1009.51 1009.38 1009.79 1009.73 1009.54 1009.12 1008.11 1007.09 1005.73 1004.92 1005.79 1006.08 1005.86 1005.83 1005.81 1006.76 1007.67 1008.88 1009.98 1011.13
1009.20 1008.98 1008.44 1009.03 1010.10 1010.96 1012.82 1013.68 1014.36 1013.98 1013.03 1011.38 1010.36 1009.02 1006.92 1006.31 1005.77 1005.87 1006.27 1006.64 1007.31 1008.17 1008.47 1009.06 1009.95 1009.22 1008.20 1009.03 1009.02 1008.95 1008.49 1007.94 1006.85 1005.76 1005.43 1006.04 1006.29 1006.15 1005.85 1006.13 1006.48 1007.57 1008.93 1010.22 1011.24
1008.41 1007.81 1008.20 1008.15 1009.41 1010.37 1011.37 1011.23 1010.35 1009.78 1010.55 1010.10 1009.24 1008.79 1007.22 1006.98 1006.66 1005.26 1005.80 1006.79 1007.20 1007.62 1008.34 1009.08 1008.96 1007.23 1008.37 1008.52 1008.44 1008.40 1008.00 1007.36 1006.69 1006.01 1006.16 1006.62 1006.58 1005.98 1005.82 1005.90 1006.25 1007.42 1008.82 1009.99 1011.22
1006.64 1006.78 1007.46 1007.32 1008.26 1010.25 1010.02 1009.91 1009.47 1009.34 1009.57 1007.91 1007.87 1007.37 1007.37 1006.94 1006.30 1005.03 1005.35 1005.89 1006.22 1007.13 1007.60 1007.58 1007.02 1007.30 1007.55 1007.50 1007.56 1007.25 1007.21 1006.98 1006.81 1006.04 1006.07 1006.69 1006.60 1006.08 1005.50 1005.48 1006.05 1007.17 1008.48 1009.74 1010.65
1005.72 1006.43 1008.02 1006.83 1008.12 1008.82 1008.98 1009.64 1009.22 1009.75 1009.21 1006.04 1005.43 1004.94 1006.19 1006.64 1005.18 1004.66 1004.76 1005.49 1005.98 1006.36 1006.96 1006.45 1006.60 1006.43 1006.50 1006.36 1006.52 1006.41 1006.34 1006.44 1006.56 1006.88 1007.19 1006.90 1006.82 1006.33 1005.87 1005.75 1006.70 1007.88 1008.85 1009.87 1010.84
1005.14 1006.34 1006.76 1006.10 1005.83 1007.12 1008.07 1008.96 1010.15 1010.16 1008.46 1002.96 1002.16 1002.34 1002.89 1003.79 1003.54 1003.63 1004.21 1004.72 1005.06 1005.48 1006.01 1004.86 1005.08 1005.41 1005.18 1005.00 1005.47 1005.85 1006.02 1006.36 1006.79 1007.32 1007.80 1007.70 1007.47 1005.97 1006.34 1006.62 1007.36 1008.10 1009.18 1010.18 1010.99
1004.37 1005.50 1005.82 1005.92 1005.19 1005.85 1006.84 1008.73 1010.19 1010.69 1004.92 1001.03 1000.09 1001.24 1002.52 1002.88 1003.20 1003.00 1003.72 1004.60 1004.66 1005.34 1004.98 1004.83 1004.32 1004.44 1004.39 1004.40 1004.56 1005.38 1006.10 1006.58 1007.34 1008.14 1008.47 1007.96 1007.78 1006.42 1006.07 1006.43 1007.90 1008.80 1009.67 1010.55 1011.28
1003.97 1005.01 1005.44 1004.92 1004.12 1005.47 1006.72 1008.38 1009.88 1007.02 1001.79 1000.08 999.60 1000.25 1001.20 1001.76 1003.00 1002.71 1003.16 1003.53 1003.73 1005.04 1004.75 1004.74 1004.17 1004.05 1004.00 1004.01 1004.06 1004.98 1006.37 1007.78 1008.75 1009.06 1008.26 1007.98 1007.68 1005.96 1005.07 1005.23 1006.48 1008.03 1009.66 1010.58 1011.35
1003.19 1003.90 1004.02 1004.28 1004.05 1004.94 1006.15 1007.73 1007.31 1002.12 1001.14 998.29 998.79 1000.20 1000.61 1001.35 1001.97 1002.47 1002.58 1002.96 1003.28 1003.43 1003.71 1004.10 1003.88 1003.65 1002.95 1003.07 1003.92 1004.66 1005.94 1007.52 1008.73 1008.99 1008.38 1007.57 1006.80 1005.65 1004.55 1005.09 1006.89 1008.39 1009.79 1010.95 1012.10
1002.79 1003.16 1003.60 1003.51 1003.33 1004.62 1004.79 1005.07 1002.15 1001.17 1000.95 999.65 999.03 999.26 1000.01 1000.31 1000.80 1002.20 1001.79 1001.39 1001.64 1002.75 1003.27 1003.15 1002.92 1002.27 1002.39 1002.59 1003.36 1004.36 1004.99 1006.35 1007.91 1008.41 1008.90 1007.77 1007.17 1006.48 1005.91 1006.64 1007.78 1009.13 1010.38 1011.70 1012.66
1002.05 1001.97 1002.39 1002.64 1002.90 1003.60 1003.44 1002.33 1001.38 1000.36 999.38 999.70 999.17 998.61 998.99 999.77 1000.42 1001.08 1001.20 1000.51 1001.17 1001.64 1002.64 1002.68 1002.68 1001.82 1001.46 1002.23 1002.70 1003.46 1004.79 1006.38 1007.96 1009.36 1009.15 1007.91 1007.18 1006.61 1007.27 1007.83 1008.69 1009.76 1010.89 1011.91 1012.72
1001.26 1001.63 1001.33 1001.56 1001.67 1001.95 1001.46 1000.78 1000.77 999.95 999.28 999.02 999.28 999.07 998.69 999.03 999.57 999.85 999.41 999.61 999.85 1000.60 1001.49 1002.58 1002.69 1002.12 1001.57 1001.20 1002.18 1003.40 1004.46 1005.72 1007.39 1008.45 1008.98 1008.39 1006.98 1005.73 1006.60 1007.45 1008.78 1010.17 1011.21 1012.19 1012.99
1000.46 1000.71 999.39 1000.26 999.59 1000.10 1000.52 999.29 1000.23 999.86 999.45 999.34 998.84 998.78 998.49 998.62 999.08 999.37 999.07 998.80 998.81 999.70 1000.31 1001.21 1002.62 1002.59 1001.80 1001.78 1002.05 1002.96 1003.92 1005.63 1007.01 1008.31 1008.71 1008.72 1007.63 1006.13 1007.00 1008.03 1009.07 1010.39 1011.47 1012.49 1013.21
999.38 999.88 998.71 998.64 998.12 999.41 999.94 1000.44 999.76 999.44 999.09 999.31 998.85 998.38 998.36 998.77 999.62 998.81 998.68 998.72 999.07 999.09 999.62 1001.06 1001.79 1003.06 1002.61 1002.66 1002.51 1003.00 1003.93 1005.02 1006.45 1007.76 1008.30 1008.94 1008.13 1007.11 1007.30 1008.36 1009.29 1010.46 1011.68 1012.53 1013.24
998.59 998.77 998.60 997.79 998.01 998.83 999.58 999.76 1000.16 999.60 999.13 999.22 999.07 998.84 998.89 999.26 999.70 999.75 999.32 999.78 999.89 1000.17 1000.06 1000.54 1001.80 1002.70 1002.74 1002.20 1002.76 1003.44 1003.90 1004.76 1005.84 1006.91 1007.61 1007.44 1007.83 1007.83 1008.11 1008.72 1009.73 1010.88 1011.81 1012.62 1013.25
997.13 997.48 996.70 995.49 997.36 998.32 998.87 999.18 999.87 999.41 999.69 999.39 999.33 999.18 999.25 1000.03 1001.08 1001.23 1001.08 1000.99 1001.14 1001.48 1001.58 1001.60 1002.78 1003.41 1003.49 1003.59 1003.51 1003.69 1004.09 1004.58 1004.92 1005.57 1005.77 1006.15 1006.60 1007.37 1007.87 1008.74 1010.00 1010.93 1011.82 1012.67 1013.44
996.39 997.31 997.09 996.25 996.82 998.31 998.45 998.21 998.47 998.83 998.79 998.67 999.31 999.92 1000.31 1001.28 1001.92 1002.32 1002.34 1002.13 1002.48 1002.74 1003.41 1003.50 1004.67 1004.83 1005.19 1004.91 1004.99 1004.63 1004.29 1004.63 1004.95 1004.64 1004.67 1004.95 1004.99 1005.61 1007.39 1008.87 1010.34 1011.19 1011.90 1012.89 1013.44
995.58 996.11 996.13 995.72 996.75 997.28 996.74 996.78 997.08 998.71 998.57 998.71 999.46 1000.10 1001.50 1002.99 1003.24 1003.65 1003.71 1003.82 1004.05 1004.36 1004.87 1005.46 1006.25 1006.71 1006.84 1006.55 1006.61 1006.12 1004.26 1004.33 1004.13 1003.81 1003.72 1003.94 1004.50 1005.18 1007.95 1009.54 1010.49 1011.41 1012.04 1012.85 1013.65
Wind_Speed
16 15 14 13 12 11 10 8 7 6 7 9 11 11 12 12 16 5 7 8 6 7 3 5 4 8 7 7 7 3 3 7 8 7 6 6 7 3 2 3 4 3 9 12 14
17 16 16 14 13 12 11 9 8 7 7 8 10 13 12 12 5 9 10 7 6 4 3 5 8 8 5 6 6 3 3 10 5 7 2 5 7 7 4 5 4 4 6 11 11
19 17 17 15 14 13 12 10 9 7 6 8 10 13 13 11 5 6 0 10 7 5 5 4 8 7 7 6 8 8 9 10 13 3 6 2 2 2 6 3 6 3 7 6 10
19 18 17 16 15 13 12 11 9 8 7 7 9 12 16 3 5 3 7 9 8 4 6 4 6 6 5 7 9 5 11 11 8 6 5 4 3 4 2 5 1 10 9 13 12
19 18 18 17 16 14 12 10 9 8 6 7 9 10 8 4 10 4 6 7 4 3 5 9 9 6 7 6 8 9 11 9 10 8 4 5 5 3 5 8 9 10 13 11 11
20 19 18 17 16 14 12 11 10 7 5 5 7 11 2 8 8 11 9 7 7 6 8 8 7 9 7 8 7 7 8 9 8 4 4 6 6 2 7 8 9 12 11 10 12
23 20 19 17 16 13 11 11 9 8 6 6 5 4 5 19 6 2 11 9 9 8 8 8 8 4 6 8 8 9 9 9 10 3 5 5 7 8 9 7 11 11 12 10 11
23 22 21 18 15 13 11 10 10 7 6 6 4 3 9 9 14 14 15 6 7 8 7 6 6 6 3 5 9 6 6 6 8 8 12 8 14 11 11 11 12 12 11 13 11
18 23 22 21 17 13 12 9 8 6 6 5 3 4 10 9 9 13 12 10 10 6 6 8 6 2 5 2 6 3 8 9 13 13 13 13 7 11 10 15 13 12 14 15 13
22 22 23 22 20 16 13 11 6 1 5 7 8 3 8 9 11 10 12 15 8 6 6 5 2 3 3 3 9 6 10 12 15 11 8 7 6 8 6 12 11 11 15 15 13
18 16 24 22 21 22 15 6 4 4 8 11 11 7 7 9 3 10 13 7 5 5 12 6 5 12 21 12 13 11 13 11 13 9 6 6 7 11 10 8 9 10 17 15 15
17 15 20 25 24 26 15 7 10 4 6 24 22 20 22 8 8 14 16 14 14 18 7 7 16 24 11 13 17 16 18 18 14 4 5 8 10 10 7 6 10 14 19 18 15
16 12 15 26 28 19 19 18 0 4 5 9 23 17 16 9 10 10 14 11 13 15 14 17 16 15 15 17 18 16 17 15 13 8 3 2 6 5 5 6 6 17 19 18 18
15 11 15 25 20 18 20 20 6 5 4 9 16 12 15 9 10 13 9 15 6 17 17 16 17 16 21 17 16 16 13 15 5 3 5 1 8 8 7 17 13 17 17 15 17
18 17 13 28 11 19 18 17 5 4 6 9 23 13 18 22 13 21 20 8 20 15 15 12 14 15 19 12 16 13 10 7 2 3 1 6 4 7 6 3 12 15 14 14 14
18 17 12 20 6 20 21 13 5 3 19 7 15 15 15 19 15 10 19 12 12 17 19 13 9 9 12 13 15 7 6 1 2 3 3 10 6 5 8 10 11 13 15 16 13
20 19 14 13 9 18 17 9 9 16 12 9 15 21 23 16 24 10 20 20 18 18 21 18 20 19 14 8 5 10 6 1 2 3 9 11 12 18 7 19 22 22 17 13 10
20 16 10 11 13 21 13 13 10 10 17 7 16 25 23 15 20 27 14 19 24 18 6 18 16 21 11 14 11 8 10 7 7 6 6 15 8 7 5 20 19 18 15 13 9
19 9 7 11 18 18 22 18 17 13 22 6 17 22 19 20 9 21 29 25 20 22 16 12 17 9 19 6 13 7 11 13 1 2 1 5 2 7 11 18 18 18 15 10 9
8 6 8 14 21 19 19 16 12 15 17 28 13 11 18 21 17 21 17 19 22 21 23 13 5 16 18 12 14 12 8 10 4 6 6 6 6 7 11 16 17 16 14 11 9
7 4 10 14 18 16 16 20 11 13 16 17 25 12 14 24 20 20 10 10 28 23 25 24 6 6 18 18 14 10 10 5 8 7 6 4 6 3 18 19 17 13 13 10 9
6 7 11 17 14 14 20 25 16 17 14 9 7 21 16 21 19 21 21 18 13 28 28 26 12 6 14 4 7 17 15 9 7 6 4 5 5 5 14 13 16 14 10 9 9
5 4 5 18 13 14 12 18 7 17 12 12 5 7 11 2 4 27 18 15 11 24 19 21 6 4 4 9 5 9 13 9 6 4 7 7 5 6 16 14 13 11 11 9 9
4 6 4 15 9 19 22 15 14 8 5 9 4 1 4 5 2 6 14 7 6 4 5 20 7 8 8 4 7 7 11 14 13 5 6 7 6 8 12 14 11 11 9 9 8
3 4 4 9 14 18 29 17 26 10 7 12 3 8 6 5 6 5 2 3 7 6 3 5 6 12 7 5 2 4 8 11 14 8 11 13 12 15 13 11 12 11 9 9 8
6 4 3 6 21 22 25 19 27 23 16 18 12 12 6 6 6 7 5 3 2 6 4 6 2 4 3 5 1 10 13 9 12 16 10 9 17 21 15 7 9 10 10 8 7
3 2 1 3 16 19 20 28 26 20 13 14 19 15 12 6 9 7 9 7 5 3 3 4 5 4 1 5 8 10 18 18 13 12 11 17 7 19 17 11 9 9 9 8 8
Wind_Direction
211 209 210 206 219 217 218 232 248 267 295 312 319 321 323 325 309 281 249 229 189 183 220 275 233 240 243 264 276 302 19 273 275 313 141 131 112 130 92 38 330 227 121 164 160
212 211 207 209 208 218 214 218 237 257 290 309 317 315 321 327 284 247 232 166 156 205 232 235 266 245 223 255 274 118 178 254 262 328 140 138 132 143 140 218 263 279 133 152 144
210 212 211 206 204 212 216 213 224 241 273 300 313 314 319 325 291 255 284 145 179 205 273 295 299 302 234 230 253 257 232 254 274 301 9 97 44 204 174 235 254 171 65 64 66
209 207 208 205 205 201 215 212 217 224 252 286 308 318 316 255 243 170 178 158 172 209 233 232 262 276 273 265 259 254 263 250 262 285 335 312 335 324 39 232 319 112 102 85 74
209 204 205 204 203 199 201 212 216 224 249 297 314 330 349 241 248 177 163 181 170 189 230 222 242 255 252 265 279 270 271 277 273 268 283 298 273 240 283 293 105 90 80 82 83
205 202 203 201 199 200 197 198 207 220 241 282 314 326 235 249 247 168 178 183 236 207 256 257 244 237 263 258 261 270 285 294 292 290 327 313 241 172 255 257 111 110 104 95 93
199 200 198 199 195 192 194 191 200 204 231 271 309 306 260 236 277 234 180 209 212 232 260 266 275 271 309 319 274 286 301 308 289 264 258 278 295 234 230 228 138 126 114 102 98
202 195 192 191 193 182 182 184 187 202 232 262 294 279 250 262 241 251 259 241 259 259 243 289 314 285 217 327 336 309 307 286 274 263 255 172 253 245 238 206 158 152 133 108 101
261 198 190 182 182 171 163 163 178 206 230 270 272 201 264 291 229 247 210 216 211 238 296 287 322 293 347 285 324 284 260 265 275 239 242 183 242 246 280 170 155 157 141 123 110
270 214 189 181 173 149 141 143 189 205 241 250 253 314 258 238 228 205 227 211 199 206 215 235 286 266 244 166 220 217 247 242 252 272 170 151 216 269 275 138 174 163 136 130 124
258 282 190 177 167 144 128 120 125 242 238 199 198 242 282 241 315 198 205 183 190 218 207 177 166 218 219 211 236 252 252 276 287 272 140 183 204 240 236 195 192 132 142 135 132
235 253 223 172 160 153 162 187 193 152 234 222 248 230 261 306 302 201 181 189 194 213 179 198 217 223 224 232 229 235 254 265 275 209 106 235 246 235 233 212 197 154 138 138 132
217 245 272 174 156 163 182 193 10 16 255 225 218 231 237 216 244 221 172 196 193 201 198 209 220 216 220 230 243 243 235 251 245 279 310 9 294 281 270 234 96 137 138 138 137
207 216 247 171 154 175 194 194 224 2 276 248 194 230 225 216 252 225 198 191 219 214 220 222 227 228 218 223 226 243 252 250 245 311 251 116 274 271 250 233 135 138 141 138 135
200 213 233 173 140 184 164 196 250 29 259 195 196 167 173 189 134 213 223 226 206 218 200 216 197 224 235 215 216 238 249 273 256 267 74 285 254 255 163 101 139 139 134 130 127
200 205 218 198 165 179 167 167 120 167 236 241 159 161 163 192 197 184 203 219 213 227 252 250 254 235 236 248 206 215 291 358 46 105 262 242 227 239 215 174 142 126 126 132 134
203 199 200 203 180 164 149 130 163 213 150 203 170 158 180 176 200 209 183 194 193 208 230 243 245 246 239 235 217 174 121 61 315 235 233 218 235 234 265 167 158 147 138 131 123
202 191 207 222 155 152 152 154 185 198 234 129 161 167 187 160 209 210 212 207 213 216 177 215 239 228 217 206 205 196 166 152 204 198 236 224 237 233 243 148 132 126 123 123 115
202 192 203 204 165 168 159 180 201 187 188 249 164 185 185 196 163 198 217 217 208 206 208 194 226 196 217 171 180 210 204 191 248 240 84 236 104 6 95 118 123 127 128 115 118
195 167 215 197 172 171 165 187 209 226 180 205 193 197 187 192 203 193 189 210 214 207 210 230 276 216 210 192 202 203 174 186 166 204 228 228 209 179 155 139 139 139 132 130 112
176 178 185 181 178 170 186 203 187 218 225 192 212 205 218 197 200 199 204 218 203 199 202 217 238 294 205 206 183 184 209 190 173 188 185 193 235 151 165 152 145 136 134 121 111
169 200 178 174 193 173 193 196 197 196 236 225 237 203 214 195 204 214 209 195 199 201 205 199 214 226 227 211 171 201 213 196 154 257 213 149 270 122 138 132 130 139 124 121 118
179 192 226 173 185 184 185 213 207 193 201 192 237 206 216 214 236 214 204 224 357 184 193 181 204 165 185 186 210 197 201 204 133 116 194 182 253 140 138 143 147 132 125 124 128
147 166 260 184 186 195 178 192 211 235 199 182 219 96 129 185 211 286 221 37 35 116 50 184 149 191 189 204 164 173 200 215 207 188 177 192 150 152 150 151 135 121 123 128 137
154 199 255 177 175 192 188 169 191 170 225 192 241 213 160 147 221 215 360 80 56 347 39 112 138 184 217 72 44 161 208 232 231 195 189 200 179 171 172 163 131 135 139 134 113
140 156 224 162 172 186 188 193 187 196 170 192 212 205 174 146 191 209 136 96 139 26 43 3 59 81 357 357 44 288 273 269 277 246 235 198 209 171 150 98 136 147 122 112 105
152 152 290 242 177 177 187 195 201 184 191 203 194 172 185 115 95 73 59 65 77 96 100 73 104 79 306 44 36 285 231 237 245 252 221 229 205 127 131 184 145 116 111 109 85